This is the latest recevied weather packets stored in our database for station/object G7GQA-4. If no packets are shown the sender has not sent any weather packets the latest 1 day(s).
| Time | Temp. | Humidity | Pressure | Rain* | Wind** | Luminosity | Snow |
|---|---|---|---|---|---|---|---|
| 1778011826 | 11.11° C | 74% | - | 0 mm | 0.89 m/s, 310° | 0 W/m² | - |
| 1778011226 | 11.11° C | 74% | - | 0 mm | 0 m/s | 1 W/m² | - |
| 1778010626 | 11.11° C | 72% | - | 0 mm | 0.45 m/s, 306° | 2 W/m² | - |
| 1778010026 | 11.67° C | 71% | - | 0 mm | 0.45 m/s, 312° | 4 W/m² | - |
| 1778009426 | 11.67° C | 71% | - | 0 mm | 0.45 m/s, 312° | 8 W/m² | - |
| 1778008826 | 12.22° C | 70% | - | 0 mm | 0.45 m/s, 317° | 13 W/m² | - |
| 1778008225 | 12.22° C | 69% | - | 0 mm | 0.89 m/s, 318° | 20 W/m² | - |
| 1778007625 | 12.22° C | 68% | - | 0 mm | 0.89 m/s, 307° | 25 W/m² | - |
| 1778007025 | 12.78° C | 66% | - | 0 mm | 1.34 m/s, 313° | 30 W/m² | - |
| 1778006425 | 12.78° C | 64% | - | 0 mm | 0.89 m/s, 327° | 41 W/m² | - |
| 1778005825 | 12.78° C | 64% | - | 0 mm | 0.45 m/s, 300° | 39 W/m² | - |
| 1778005225 | 12.78° C | 64% | - | 0 mm | 0.89 m/s, 304° | 52 W/m² | - |
| 1778004625 | 12.78° C | 63% | - | 0 mm | 1.79 m/s, 306° | 56 W/m² | - |
| 1778004025 | 13.33° C | 62% | - | 0 mm | 0.89 m/s, 311° | 59 W/m² | - |
| 1778003424 | 13.33° C | 62% | - | 0 mm | 0.89 m/s, 348° | 65 W/m² | - |
| 1778002824 | 13.33° C | 63% | - | 0 mm | 0.45 m/s, 346° | 69 W/m² | - |
| 1778002225 | 13.33° C | 62% | - | 0 mm | 0.89 m/s, 310° | 83 W/m² | - |
| 1778001626 | 13.33° C | 61% | - | 0 mm | 1.34 m/s, 314° | 98 W/m² | - |
| 1778001026 | 13.33° C | 63% | - | 0 mm | 1.34 m/s, 323° | 90 W/m² | - |
| 1778000424 | 13.89° C | 61% | - | 0 mm | 0.89 m/s, 37° | 110 W/m² | - |
| 1777999825 | 13.89° C | 59% | - | 0 mm | 0.89 m/s, 302° | 114 W/m² | - |
| 1777999225 | 13.89° C | 58% | - | 0 mm | 1.34 m/s, 311° | 145 W/m² | - |
| 1777998625 | 13.89° C | 58% | - | 0 mm | 1.34 m/s, 294° | 165 W/m² | - |
| 1777998025 | 13.89° C | 57% | - | 0 mm | 1.79 m/s, 312° | 150 W/m² | - |
| 1777997426 | 13.89° C | 57% | - | 0 mm | 1.34 m/s, 314° | 157 W/m² | - |
* Rain latest hour (hover to see other rain measurements)
** Current wind speed in m/s (hover to see current wind gust speed)